Time,TemperatureF,DewpointF,PressureIn,WindDirection,WindDirectionDegrees,WindSpeedMPH,WindSpeedGustMPH,Humidity,HourlyPrecipIn,Conditions,Clouds,dailyrainin,SoftwareType,DateUTC
2013-06-14 00:01:00,60.5,55.0,29.97,NNW,335,0.0,2.0,81,0.00,,,0.00,weatherlink.com 1.10,2013-06-14 04:01:00,
2013-06-14 00:16:00,60.0,54.0,29.98,NE,43,0.0,0.0,81,0.00,,,0.00,weatherlink.com 1.10,2013-06-14 04:16:00,
2013-06-14 00:31:00,59.8,54.0,29.98,WNW,295,0.0,0.0,81,0.00,,,0.00,weatherlink.com 1.10,2013-06-14 04:31:00,
2013-06-14 00:46:00,59.5,54.0,29.99,NW,310,0.0,0.0,81,0.00,,,0.00,weatherlink.com 1.10,2013-06-14 04:46:00,
2013-06-14 01:01:00,59.2,53.0,29.99,NW,310,0.0,0.0,80,0.00,,,0.00,weatherlink.com 1.10,2013-06-14 05:01:00,
2013-06-14 01:16:00,58.9,53.0,29.99,NNW,340,0.0,1.0,80,0.00,,,0.00,weatherlink.com 1.10,2013-06-14 05:16:00,
2013-06-14 01:31:00,58.6,53.0,29.99,East,84,0.0,1.0,81,0.00,,,0.00,weatherlink.com 1.10,2013-06-14 05:31:00,
2013-06-14 01:46:00,58.3,53.0,29.99,NE,51,0.0,0.0,81,0.00,,,0.00,weatherlink.com 1.10,2013-06-14 05:46:00,
2013-06-14 02:01:00,58.0,52.0,29.99,ENE,57,0.0,1.0,81,0.00,,,0.00,weatherlink.com 1.10,2013-06-14 06:01:00,
2013-06-14 02:16:00,57.8,52.0,30.00,North,5,0.0,2.0,81,0.00,,,0.00,weatherlink.com 1.10,2013-06-14 06:16:00,
2013-06-14 02:31:00,57.6,52.0,30.00,North,8,0.0,1.0,81,0.00,,,0.00,weatherlink.com 1.10,2013-06-14 06:31:00,
2013-06-14 02:46:00,57.4,52.0,29.99,ENE,63,1.0,3.0,81,0.00,,,0.00,weatherlink.com 1.10,2013-06-14 06:46:00,
2013-06-14 03:01:00,57.2,51.0,30.00,North,349,0.0,4.0,81,0.00,,,0.00,weatherlink.com 1.10,2013-06-14 07:01:00,
2013-06-14 03:16:00,56.9,51.0,30.00,North,358,0.0,1.0,81,0.00,,,0.00,weatherlink.com 1.10,2013-06-14 07:16:00,
2013-06-14 03:31:00,56.7,51.0,30.00,NNE,32,0.0,0.0,81,0.00,,,0.00,weatherlink.com 1.10,2013-06-14 07:31:00,
2013-06-14 03:46:00,56.3,51.0,30.00,NNE,32,0.0,0.0,81,0.00,,,0.00,weatherlink.com 1.10,2013-06-14 07:46:00,
2013-06-14 04:01:00,56.1,50.0,30.00,NNE,32,0.0,0.0,81,0.00,,,0.00,weatherlink.com 1.10,2013-06-14 08:01:00,
2013-06-14 04:16:00,55.8,50.0,30.01,ENE,62,0.0,1.0,81,0.00,,,0.00,weatherlink.com 1.10,2013-06-14 08:16:00,
2013-06-14 04:31:00,55.4,49.0,30.01,ENE,60,0.0,1.0,80,0.00,,,0.00,weatherlink.com 1.10,2013-06-14 08:31:00,
2013-06-14 04:46:00,55.2,49.0,30.01,North,356,0.0,1.0,79,0.00,,,0.00,weatherlink.com 1.10,2013-06-14 08:46:00,
2013-06-14 05:01:00,55.2,49.0,30.01,ENE,59,0.0,1.0,79,0.00,,,0.00,weatherlink.com 1.10,2013-06-14 09:01:00,
2013-06-14 05:16:00,55.1,49.0,30.01,NNW,343,0.0,1.0,79,0.00,,,0.00,weatherlink.com 1.10,2013-06-14 09:16:00,
2013-06-14 05:31:00,54.8,48.0,30.01,East,84,0.0,1.0,79,0.00,,,0.00,weatherlink.com 1.10,2013-06-14 09:31:00,
2013-06-14 05:47:00,54.9,49.0,30.01,East,92,0.0,4.0,79,0.00,,,0.00,weatherlink.com 1.10,2013-06-14 09:47:00,
2013-06-14 06:02:00,54.9,49.0,30.02,NE,44,0.0,1.0,79,0.00,,,0.00,weatherlink.com 1.10,2013-06-14 10:02:00,
2013-06-14 06:17:00,55.0,49.0,30.02,East,95,0.0,0.0,79,0.00,,,0.00,weatherlink.com 1.10,2013-06-14 10:17:00,
2013-06-14 06:32:00,55.1,49.0,30.03,East,94,0.0,0.0,79,0.00,,,0.00,weatherlink.com 1.10,2013-06-14 10:32:00,
2013-06-14 06:47:00,55.4,49.0,30.04,NE,37,0.0,0.0,80,0.00,,,0.00,weatherlink.com 1.10,2013-06-14 10:47:00,
2013-06-14 07:02:00,55.4,49.0,30.05,NE,37,0.0,1.0,80,0.00,,,0.00,weatherlink.com 1.10,2013-06-14 11:02:00,
2013-06-14 07:17:00,55.9,50.0,30.06,WNW,298,1.0,3.0,81,0.00,,,0.00,weatherlink.com 1.10,2013-06-14 11:17:00,
2013-06-14 07:32:00,56.1,50.0,30.06,ENE,63,0.0,2.0,81,0.00,,,0.00,weatherlink.com 1.10,2013-06-14 11:32:00,
2013-06-14 07:47:00,57.2,52.0,30.07,ENE,61,1.0,3.0,82,0.00,,,0.00,weatherlink.com 1.10,2013-06-14 11:47:00,
2013-06-14 08:02:00,59.9,54.0,30.07,NE,48,0.0,2.0,82,0.00,,,0.00,weatherlink.com 1.10,2013-06-14 12:02:00,
2013-06-14 08:17:00,61.0,54.0,30.07,NW,315,0.0,3.0,79,0.00,,,0.00,weatherlink.com 1.10,2013-06-14 12:17:00,
2013-06-14 08:32:00,62.2,55.0,30.07,East,91,1.0,2.0,76,0.00,,,0.00,weatherlink.com 1.10,2013-06-14 12:32:00,
2013-06-14 08:47:00,63.5,55.0,30.08,East,85,0.0,4.0,74,0.00,,,0.00,weatherlink.com 1.10,2013-06-14 12:47:00,
2013-06-14 09:02:00,63.6,55.0,30.07,ENE,58,0.0,3.0,73,0.00,,,0.00,weatherlink.com 1.10,2013-06-14 13:02:00,
2013-06-14 09:17:00,65.2,55.0,30.08,NW,324,0.0,2.0,70,0.00,,,0.00,weatherlink.com 1.10,2013-06-14 13:17:00,
2013-06-14 09:32:00,66.0,55.0,30.10,South,172,0.0,4.0,67,0.00,,,0.00,weatherlink.com 1.10,2013-06-14 13:32:00,
2013-06-14 09:47:00,66.5,55.0,30.10,East,84,0.0,2.0,66,0.00,,,0.00,weatherlink.com 1.10,2013-06-14 13:47:00,
2013-06-14 10:02:00,67.6,56.0,30.10,NNE,23,0.0,3.0,66,0.00,,,0.00,weatherlink.com 1.10,2013-06-14 14:02:00,
2013-06-14 10:17:00,67.8,56.0,30.10,NE,40,1.0,4.0,65,0.00,,,0.00,weatherlink.com 1.10,2013-06-14 14:17:00,
2013-06-14 10:32:00,69.0,56.0,30.10,NNW,328,0.0,3.0,64,0.00,,,0.00,weatherlink.com 1.10,2013-06-14 14:32:00,
2013-06-14 10:47:00,68.9,56.0,30.10,ENE,60,1.0,3.0,64,0.00,,,0.00,weatherlink.com 1.10,2013-06-14 14:47:00,
2013-06-14 11:02:00,70.4,57.0,30.10,NE,51,1.0,2.0,63,0.00,,,0.00,weatherlink.com 1.10,2013-06-14 15:02:00,
2013-06-14 11:18:00,70.5,57.0,30.10,East,82,0.0,3.0,63,0.00,,,0.00,weatherlink.com 1.10,2013-06-14 15:18:00,
2013-06-14 11:33:00,71.2,57.0,30.10,NW,324,1.0,2.0,61,0.00,,,0.00,weatherlink.com 1.10,2013-06-14 15:33:00,
2013-06-14 11:48:00,72.4,58.0,30.10,ESE,117,0.0,3.0,61,0.00,,,0.00,weatherlink.com 1.10,2013-06-14 15:48:00,
2013-06-14 12:03:00,72.8,57.0,30.09,East,95,0.0,2.0,57,0.00,,,0.00,weatherlink.com 1.10,2013-06-14 16:03:00,
2013-06-14 12:18:00,73.0,57.0,30.08,WNW,301,2.0,3.0,58,0.00,,,0.00,weatherlink.com 1.10,2013-06-14 16:18:00,
2013-06-14 12:33:00,73.6,58.0,30.08,WSW,253,1.0,3.0,58,0.00,,,0.00,weatherlink.com 1.10,2013-06-14 16:33:00,
2013-06-14 12:48:00,73.9,56.0,30.08,NNW,335,0.0,4.0,54,0.00,,,0.00,weatherlink.com 1.10,2013-06-14 16:48:00,
2013-06-14 13:03:00,75.0,56.0,30.08,NNW,332,2.0,3.0,52,0.00,,,0.00,weatherlink.com 1.10,2013-06-14 17:03:00,
2013-06-14 13:18:00,74.9,57.0,30.07,WNW,301,0.0,3.0,54,0.00,,,0.00,weatherlink.com 1.10,2013-06-14 17:18:00,
2013-06-14 13:33:00,75.6,57.0,30.07,SE,141,1.0,3.0,53,0.00,,,0.00,weatherlink.com 1.10,2013-06-14 17:33:00,
2013-06-14 13:48:00,75.9,56.0,30.07,NNW,331,1.0,6.0,51,0.00,,,0.00,weatherlink.com 1.10,2013-06-14 17:48:00,
2013-06-14 14:03:00,76.3,56.0,30.05,NNW,348,0.0,3.0,50,0.00,,,0.00,weatherlink.com 1.10,2013-06-14 18:03:00,
2013-06-14 14:18:00,77.2,55.0,30.05,NW,321,1.0,3.0,46,0.00,,,0.00,weatherlink.com 1.10,2013-06-14 18:18:00,
2013-06-14 14:33:00,77.8,55.0,30.05,NW,316,2.0,4.0,46,0.00,,,0.00,weatherlink.com 1.10,2013-06-14 18:33:00,
2013-06-14 14:48:00,78.3,56.0,30.05,WSW,252,0.0,2.0,46,0.00,,,0.00,weatherlink.com 1.10,2013-06-14 18:48:00,
2013-06-14 15:03:00,78.6,55.0,30.05,NNW,338,1.0,2.0,44,0.00,,,0.00,weatherlink.com 1.10,2013-06-14 19:03:00,
2013-06-14 15:18:00,78.5,53.0,30.05,ESE,122,2.0,4.0,42,0.00,,,0.00,weatherlink.com 1.10,2013-06-14 19:18:00,
2013-06-14 15:33:00,78.8,55.0,30.05,SSW,200,1.0,3.0,44,0.00,,,0.00,weatherlink.com 1.10,2013-06-14 19:33:00,
2013-06-14 15:48:00,78.6,54.0,30.04,WNW,284,1.0,6.0,43,0.00,,,0.00,weatherlink.com 1.10,2013-06-14 19:48:00,
2013-06-14 16:03:00,78.4,53.0,30.05,West,271,2.0,7.0,42,0.00,,,0.00,weatherlink.com 1.10,2013-06-14 20:03:00,
2013-06-14 16:18:00,78.6,54.0,30.04,WNW,293,3.0,6.0,43,0.00,,,0.00,weatherlink.com 1.10,2013-06-14 20:18:00,
2013-06-14 16:33:00,79.3,55.0,30.04,NNW,329,2.0,4.0,43,0.00,,,0.00,weatherlink.com 1.10,2013-06-14 20:33:00,
2013-06-14 16:48:00,78.3,53.0,30.04,WNW,298,5.0,6.0,42,0.00,,,0.00,weatherlink.com 1.10,2013-06-14 20:48:00,
2013-06-14 17:03:00,78.2,54.0,30.03,NNE,20,1.0,7.0,43,0.00,,,0.00,weatherlink.com 1.10,2013-06-14 21:03:00,
2013-06-14 17:18:00,78.4,53.0,30.04,NNW,328,2.0,9.0,42,0.00,,,0.00,weatherlink.com 1.10,2013-06-14 21:18:00,
2013-06-14 17:33:00,77.4,58.0,30.04,West,276,7.0,8.0,51,0.00,,,0.00,weatherlink.com 1.10,2013-06-14 21:33:00,
2013-06-14 17:48:00,76.0,57.0,30.04,West,274,3.0,10.0,52,0.00,,,0.00,weatherlink.com 1.10,2013-06-14 21:48:00,
2013-06-14 18:03:00,76.2,57.0,30.04,WNW,298,3.0,10.0,51,0.00,,,0.00,weatherlink.com 1.10,2013-06-14 22:03:00,
2013-06-14 18:18:00,76.4,57.0,30.03,NNW,335,2.0,8.0,52,0.00,,,0.00,weatherlink.com 1.10,2013-06-14 22:18:00,
2013-06-14 18:33:00,76.5,57.0,30.03,NNE,15,3.0,8.0,51,0.00,,,0.00,weatherlink.com 1.10,2013-06-14 22:33:00,
2013-06-14 18:48:00,75.3,56.0,30.02,West,281,4.0,9.0,52,0.00,,,0.00,weatherlink.com 1.10,2013-06-14 22:48:00,
2013-06-14 19:03:00,74.1,56.0,30.03,NW,304,2.0,9.0,53,0.00,,,0.00,weatherlink.com 1.10,2013-06-14 23:03:00,
2013-06-14 19:18:00,73.9,55.0,30.03,NW,304,2.0,8.0,52,0.00,,,0.00,weatherlink.com 1.10,2013-06-14 23:18:00,
2013-06-14 19:33:00,73.6,55.0,30.02,NNW,345,1.0,8.0,53,0.00,,,0.00,weatherlink.com 1.10,2013-06-14 23:33:00,
2013-06-14 19:48:00,73.5,55.0,30.02,WNW,289,1.0,6.0,53,0.00,,,0.00,weatherlink.com 1.10,2013-06-14 23:48:00,
2013-06-14 20:03:00,73.2,55.0,30.02,WNW,293,5.0,5.0,54,0.00,,,0.00,weatherlink.com 1.10,2013-06-15 00:03:00,
2013-06-14 20:18:00,73.2,55.0,30.02,West,280,2.0,4.0,54,0.00,,,0.00,weatherlink.com 1.10,2013-06-15 00:18:00,
2013-06-14 20:34:00,72.7,55.0,30.02,WNW,290,2.0,6.0,55,0.00,,,0.00,weatherlink.com 1.10,2013-06-15 00:34:00,
2013-06-14 20:49:00,71.5,55.0,30.02,WNW,287,0.0,3.0,56,0.00,,,0.00,weatherlink.com 1.10,2013-06-15 00:49:00,
2013-06-14 21:04:00,70.4,55.0,30.02,West,274,1.0,2.0,58,0.00,,,0.00,weatherlink.com 1.10,2013-06-15 01:04:00,
2013-06-14 21:19:00,69.2,55.0,30.03,West,274,0.0,2.0,62,0.00,,,0.00,weatherlink.com 1.10,2013-06-15 01:19:00,
2013-06-14 21:34:00,67.9,56.0,30.03,West,274,0.0,0.0,65,0.00,,,0.00,weatherlink.com 1.10,2013-06-15 01:34:00,
2013-06-14 21:49:00,66.6,56.0,30.03,West,271,0.0,0.0,68,0.00,,,0.00,weatherlink.com 1.10,2013-06-15 01:49:00,
2013-06-14 22:04:00,66.1,55.0,30.04,WSW,243,0.0,0.0,68,0.00,,,0.00,weatherlink.com 1.10,2013-06-15 02:04:00,
2013-06-14 22:19:00,65.0,55.0,30.03,WSW,243,0.0,0.0,71,0.00,,,0.00,weatherlink.com 1.10,2013-06-15 02:19:00,
2013-06-14 22:34:00,64.0,56.0,30.03,WSW,244,0.0,0.0,74,0.00,,,0.00,weatherlink.com 1.10,2013-06-15 02:34:00,
2013-06-14 22:49:00,62.9,56.0,30.03,WSW,244,0.0,0.0,77,0.00,,,0.00,weatherlink.com 1.10,2013-06-15 02:49:00,
2013-06-14 23:04:00,61.7,55.0,30.03,WSW,243,0.0,0.0,79,0.00,,,0.00,weatherlink.com 1.10,2013-06-15 03:04:00,
2013-06-14 23:19:00,60.9,55.0,30.04,WSW,243,0.0,0.0,80,0.00,,,0.00,weatherlink.com 1.10,2013-06-15 03:19:00,
2013-06-14 23:34:00,60.4,54.0,30.03,WSW,243,0.0,0.0,80,0.00,,,0.00,weatherlink.com 1.10,2013-06-15 03:34:00,
2013-06-14 23:49:00,59.8,54.0,30.03,WSW,243,0.0,0.0,80,0.00,,,0.00,weatherlink.com 1.10,2013-06-15 03:49:00,